{"data":{"norad_id":51962,"epoch":"2026-09-19T07:28:08.955264Z","epoch_age_seconds":158878,"freshness":"FRESH","line1":"1 51962U 22025G   26262.31121476  .00001644  00000+0  64711-4 0  9994","line2":"2 51962  53.1602 203.2175 0001450  85.1922 274.9245 15.31713754250680","mean_motion":15.31713754,"eccentricity":0.000145,"inclination_deg":53.1602,"raan_deg":203.2175,"arg_perigee_deg":85.1922,"mean_anomaly_deg":274.9245,"bstar":6.4711e-5,"rev_number":25068,"period_min":94.01234377112,"perigee_km":469.70591435479,"apogee_km":471.69207679351,"semimajor_km":6848.8359955741,"source":"CELESTRAK","updated_at":"2026-09-20T09:00:39.976053Z"}}